• Join FlightAware (Why Join?)
  • Login
  • US Flag 
08:41AM EST


 

Airport Tracker/Info


-or-


 

Live Flight TrackerFlight Track Log ✈ AWE1940 ✈ 20-Aug-2013 ✈ KTPA - KCLT

Flight Track Log - Related Links

Times and Time Zones

All times are in EDT time to prevent confusion due to time zone crossing. See the AWE1940 flight status page for this flight to view local times or setup timezone preferences in your user account.

Time Position Orientation Groundspeed Altitude Reporting Facility
EDT Latitude Longitude Course Direction KTS MPH feet Rate Location/Type
08:20PM 28.0000 -82.5333 North 169 194 600  Level Tampa TRACON
08:20PM 28.0333 -82.5333 360° North 201 231 1,600 1,670 Climbing Tampa TRACON
08:21PM 28.1000 -82.5333 360° North 263 303 3,300 2,212 Climbing Tampa TRACON
08:23PM 28.2456 -82.5414 357° North 318 366 8,200 2,360 Climbing Jacksonville Center
08:24PM 28.3269 -82.5436 359° North 298 343 10,300 1,750 Climbing Jacksonville Center
08:25PM 28.6137 -82.5833 North  Level FlightAware Approximate
08:25PM 28.4186 -82.5386 North 304 350 11,700  Level Jacksonville Center
08:26PM 28.5167 -82.5286 North 330 380 14,000 2,250 Climbing Jacksonville Center
08:27PM 28.6106 -82.4883 21° North 344 396 16,200 2,350 Climbing Jacksonville Center
08:28PM 28.6978 -82.4003 42° Northeast 351 404 18,700 2,200 Climbing Jacksonville Center
08:29PM 28.7581 -82.3242 48° Northeast 358 412 20,600 1,850 Climbing Jacksonville Center
08:30PM 28.8244 -82.2292 51° Northeast 358 412 22,400 1,400 Climbing Jacksonville Center
08:31PM 28.9200 -82.1739 27° Northeast 368 423 23,400 1,500 Climbing Jacksonville Center
08:32PM 29.0517 -82.1658 North 383 441 25,400 1,600 Climbing Jacksonville Center
08:33PM 29.1706 -82.1600 North 405 466 26,600 1,200 Climbing Jacksonville Center
08:34PM 29.2958 -82.1592 360° North 429 494 27,800 1,200 Climbing Jacksonville Center
08:35PM 29.4231 -82.1606 359° North 442 509 29,000 1,300 Climbing Jacksonville Center
08:36PM 29.5483 -82.1572 North 447 514 30,400 1,500 Climbing Jacksonville Center
08:37PM 29.6714 -82.1589 359° North 447 514 32,000 1,300 Climbing Jacksonville Center
08:38PM 29.7947 -82.1650 358° North 442 509 33,000 500 Climbing Jacksonville Center
08:39PM 29.8908 -82.1642 360° North 437 503 33,000  Level Jacksonville Center
08:40PM 30.0369 -82.1583 North 437 503 33,000  Level Jacksonville Center
08:41PM 30.1581 -82.1597 359° North 437 503 33,000  Level Jacksonville Center
08:42PM 30.2747 -82.1589 360° North 437 503 33,000  Level Jacksonville Center
08:43PM 30.3981 -82.1606 359° North 432 497 33,000  Level Jacksonville Center
08:44PM 30.5169 -82.1594 360° North 432 497 33,000  Level Jacksonville Center
08:45PM 30.6236 -82.1539 North 427 491 33,000  Level Jacksonville Center
08:46PM 30.7444 -82.1264 11° North 427 491 33,000  Level Jacksonville Center
08:47PM 30.8611 -82.0939 13° North 427 491 33,000  Level Jacksonville Center
08:48PM 30.9778 -82.0614 13° North 427 491 33,000  Level Jacksonville Center
08:49PM 31.0989 -82.0289 13° North 433 498 33,000  Level Jacksonville Center
08:50PM 31.2197 -81.9961 13° North 433 498 33,000 -50 Level Jacksonville Center
08:51PM 31.3406 -81.9608 14° North 433 498 32,900  Descending Jacksonville Center
08:52PM 31.4592 -81.9256 14° North 438 504 33,000 50 Climbing Jacksonville Center
08:53PM 31.5906 -81.8853 15° North 433 498 33,000  Level Jacksonville Center
08:54PM 31.7092 -81.8522 13° North 433 498 33,000  Level Jacksonville Center
08:55PM 31.8175 -81.8217 13° North 433 498 33,000  Level Jacksonville Center
08:56PM 31.9486 -81.7858 13° North 438 504 33,000  Level Jacksonville Center
08:57PM 32.0592 -81.7625 10° North 443 510 33,000  Level Jacksonville Center
08:59PM 32.2872 -81.7736 358° North 425 489 33,000  Level Atlanta Center
09:00PM 32.4089 -81.8097 346° North 425 489 33,000  Level Atlanta Center
09:01PM 32.5286 -81.8414 347° North 431 496 33,000  Level Atlanta Center
09:02PM 32.6458 -81.8731 347° North 431 496 33,000  Level Atlanta Center
09:03PM 32.7697 -81.9069 347° North 436 502 33,000  Level Atlanta Center
09:04PM 32.8892 -81.9386 347° North 436 502 33,000  Level Atlanta Center
09:05PM 33.0086 -81.9706 347° North 436 502 33,000 -400 Level Atlanta Center
09:06PM 33.1306 -82.0147 343° North 436 502 32,200 -900 Descending Atlanta Center
09:07PM 33.2442 -82.0742 336° Northwest 441 507 31,200 -1,050 Descending Atlanta Center
09:08PM 33.3619 -82.1336 337° Northwest 446 513 30,100 -1,050 Descending Atlanta Center
09:09PM 33.4858 -82.1808 342° North 451 519 29,100 -550 Descending Atlanta Center
09:10PM 33.6136 -82.2028 352° North 451 519 29,000 -650 Descending Atlanta Center
09:11PM 33.7572 -82.1897 North 466 536 27,800 -1,300 Descending Atlanta Center
09:12PM 33.8789 -82.2222 347° North 461 531 26,400 -1,250 Descending Atlanta Center
09:13PM 33.9944 -82.2750 339° North 441 507 25,300 -1,000 Descending Atlanta Center
09:14PM 34.0892 -82.3231 337° Northwest 419 482 24,400 -650 Descending Atlanta Center
09:15PM 34.2167 -82.3506 350° North 419 482 24,000 -500 Descending Atlanta Center
09:16PM 34.3011 -82.2558 43° Northeast 371 427 23,400 -1,250 Descending Atlanta Center
09:17PM 34.3725 -82.1461 52° Northeast 376 433 21,500 -1,950 Descending Atlanta Center
09:18PM 34.4375 -82.0339 55° Northeast 386 444 19,500 -1,900 Descending Atlanta Center
09:19PM 34.5025 -81.9292 53° Northeast 391 450 17,700 -1,850 Descending Atlanta Center
09:20PM 34.5631 -81.8242 55° Northeast 386 444 15,800 -1,900 Descending Atlanta Center
09:21PM 34.6219 -81.7267 54° Northeast 375 432 13,900 -1,938 Descending Atlanta Center
09:22PM 34.6564 -81.6703 53° Northeast 352 405 12,700 -1,253 Descending Atlanta Center
09:23PM 34.7089 -81.5853 53° Northeast 344 396 12,000 -382 Descending Atlanta Center
09:24PM 34.7719 -81.5000 48° Northeast 367 422 12,000  Level Atlanta Center
09:24PM 34.8125 -81.4456 48° Northeast 358 412 12,000  Level Atlanta Center
09:25PM 34.8733 -81.3653 47° Northeast 358 412 12,000  Level Atlanta Center
09:26PM 34.9442 -81.2717 47° Northeast 364 419 12,000 -200 Level Atlanta Center
09:27PM 35.0133 -81.1833 46° Northeast 359 413 11,600 -695 Descending Atlanta Center
09:28PM 35.0578 -81.1258 47° Northeast 346 398 10,900 -1,281 Descending Atlanta Center
09:29PM 35.1189 -81.0653 39° Northeast 296 341 9,700 -1,271 Descending Atlanta Center
09:29PM 35.1481 -81.0669 357° North 290 334 9,100 -1,672 Descending Atlanta Center
09:30PM 35.1983 -81.0728 355° North 285 328 8,000 -1,800 Descending Atlanta Center
09:30PM 35.2317 -81.0739 358° North 279 321 7,300 -1,333 Descending Atlanta Center
09:31PM 35.3092 -81.0814 355° North 279 321 6,000 -1,253 Descending Atlanta Center
09:32PM 35.3553 -81.0847 357° North 269 310 5,400 -759 Descending Atlanta Center
09:32PM 35.4111 -81.0728 10° North 244 281 5,000 -574 Descending Atlanta Center
09:34PM 35.4156 -80.9908 86° East 226 260 4,300 -806 Descending Atlanta Center
09:35PM 35.3567 -80.9703 164° South 211 243 3,200 -985 Descending Atlanta Center
09:36PM 35.2958 -80.9647 176° South 181 208 2,100 -887 Descending Atlanta Center
09:37PM 35.2664 -80.9583 170° South 139 160 1,500 -750 Descending Atlanta Center